Location: B�rgermoos
(47.6500°N, 9.0667°E)
Time: 09:36:24
(UTC+00:00)

A-11 Canister half - Pass Details

Date: 04 August 2021
Orbit: 1526 x 1683 km, 47.3° (Epoch: 20 September)

Event Time Altitude Azimuth Distance (km) Brightness Sun altitude
Rises 09:02:38 0° 212° (SSW) 4,915 11.7 47.2°
Reaches altitude 10° 09:06:02 10° 205° (SSW) 3,935 11.3 47.6°
Maximum altitude 09:15:13 41° 140° (SE) 2,276 12.1 48.9°
Drops below altitude 10° 09:24:20 10° 75° (ENE) 3,916 11.6 50.1°
Sets 09:27:41 0° 69° (ENE) 4,889 11.9 50.5°
